Tracking 24122 objects as of 8-Dec-2021
HD Live streaming from Space Station
objects crossing your sky now

USA 167

Track USA 167 now!
USA 167 is classified as:


NORAD ID: 27691
Int'l Code: 2003-008A
Perigee: 35,791.0 km
Apogee: 35,797.2 km
Inclination: 7.7 °
Period: 1,436.1 minutes
Semi major axis: 42165 km
RCS: Unknown
Launch date: March 11, 2003
Source: United States (US)
Launch site: AIR FORCE EASTERN TEST RANGE (AFETR)

Super High Frequency (SHF) for U.S. government and military; sophisticated survivability enhancement; worldwide, longhaul coverage; X-band.
aabbcc
Your satellite tracking list
Your tracking list is empty




NASA's NSSDC Master Catalog

Two Line Element Set (TLE):
1 27691U 03008A   21342.37193801  .00000052  00000-0  00000+0 0  9996
2 27691   7.6716  55.8058 0000730   4.0521  21.1833  1.00270449 15064
Source of the keplerian elements: McCants